ASA652 KBUR-KPDX

Flight info

Callsign ASA652
Flight time 1h 50m
Altitude 32000
Route OROSZ2 CSTRO NURAY LMT MOXEE TMBRS4
Aircraft B739/M-SDE2E3FGHIRWXY/LB1

Departure

Time 2026-05-04 12:08
Airport Hollywood Burbank/Bob Hope Airport (KBUR)

Arrival

Time 2026-05-04 13:58
Airport Portland International Airport (KPDX)
Time Latitude Longitude Altitude Speed Heading
2026-05-04 11:42 34.19679 -118.35285 694 ft 0 kts 181°
2026-05-04 11:57 34.19696 -118.35285 686 ft 4 kts 190°
2026-05-04 11:58 34.19716 -118.35272 695 ft 4 kts 251°
2026-05-04 11:58 34.19719 -118.35244 695 ft 1 kts 271°
2026-05-04 11:58 34.19719 -118.35239 695 ft 0 kts 271°
2026-05-04 12:02 34.20028 -118.35579 694 ft 15 kts 346°
2026-05-04 12:03 34.20128 -118.35606 705 ft 14 kts 348°
2026-05-04 12:03 34.20224 -118.35632 713 ft 14 kts 347°
2026-05-04 12:03 34.20315 -118.35658 717 ft 13 kts 347°
2026-05-04 12:03 34.20403 -118.35683 718 ft 13 kts 347°
2026-05-04 12:04 34.20488 -118.35707 724 ft 12 kts 347°
2026-05-04 12:04 34.20572 -118.35730 728 ft 12 kts 347°
2026-05-04 12:04 34.20655 -118.35753 730 ft 14 kts 348°
2026-05-04 12:04 34.20766 -118.35782 740 ft 18 kts 347°
2026-05-04 12:05 34.20900 -118.35818 750 ft 22 kts 348°
2026-05-04 12:05 34.21048 -118.35859 756 ft 21 kts 347°
2026-05-04 12:05 34.21157 -118.35911 769 ft 6 kts 317°
2026-05-04 12:05 34.21186 -118.35952 772 ft 6 kts 309°
2026-05-04 12:06 34.21212 -118.35995 773 ft 6 kts 291°
2026-05-04 12:06 34.21202 -118.36036 773 ft 3 kts 221°
2026-05-04 12:06 34.21180 -118.36036 772 ft 0 kts 164°
2026-05-04 12:06 34.21168 -118.36032 772 ft 5 kts 164°
2026-05-04 12:07 34.21017 -118.35989 763 ft 54 kts 167°
2026-05-04 12:07 34.20404 -118.35817 720 ft 124 kts 167°
2026-05-04 12:07 34.19409 -118.35541 828 ft 159 kts 166°
2026-05-04 12:07 34.18315 -118.35232 1331 ft 169 kts 166°
2026-05-04 12:08 34.17132 -118.35230 1845 ft 175 kts 198°
2026-05-04 12:08 34.16115 -118.36016 2352 ft 178 kts 220°
2026-05-04 12:08 34.15185 -118.36997 2960 ft 178 kts 223°
2026-05-04 12:08 34.14260 -118.38012 3495 ft 182 kts 221°
2026-05-04 12:09 34.13307 -118.39030 4031 ft 187 kts 221°
2026-05-04 12:09 34.12277 -118.40131 4253 ft 209 kts 225°
2026-05-04 12:09 34.11514 -118.41699 4430 ft 229 kts 256°
2026-05-04 12:09 34.11182 -118.43672 4633 ft 252 kts 261°
2026-05-04 12:10 34.10888 -118.45827 5081 ft 266 kts 261°
2026-05-04 12:10 34.10603 -118.48039 5883 ft 267 kts 261°
2026-05-04 12:10 34.10318 -118.50268 6690 ft 270 kts 261°
2026-05-04 12:10 34.10037 -118.52524 7402 ft 274 kts 270°
2026-05-04 12:11 34.10430 -118.54769 8090 ft 278 kts 297°
2026-05-04 12:11 34.11643 -118.56584 8801 ft 282 kts 323°
2026-05-04 12:11 34.13365 -118.57741 9523 ft 286 kts 334°
2026-05-04 12:11 34.15181 -118.58763 10185 ft 290 kts 333°
2026-05-04 12:12 34.17080 -118.59812 10439 ft 312 kts 334°
2026-05-04 12:12 34.19132 -118.60906 10614 ft 334 kts 334°
2026-05-04 12:12 34.21315 -118.62077 10887 ft 350 kts 334°
2026-05-04 12:12 34.23563 -118.63294 11433 ft 357 kts 334°
2026-05-04 12:13 34.25895 -118.64387 12069 ft 363 kts 342°
2026-05-04 12:14 34.44070 -118.67675 16154 ft 392 kts 348°
2026-05-04 12:15 34.46776 -118.68198 16711 ft 395 kts 347°
2026-05-04 12:15 34.49500 -118.68735 17224 ft 399 kts 347°
2026-05-04 12:15 34.52251 -118.69279 17724 ft 403 kts 347°
2026-05-04 12:15 34.55026 -118.69825 18218 ft 406 kts 347°
2026-05-04 12:16 34.57828 -118.70374 18722 ft 409 kts 347°
2026-05-04 12:16 34.60652 -118.70927 19203 ft 413 kts 347°
2026-05-04 12:16 34.63498 -118.71485 19685 ft 416 kts 347°
2026-05-04 12:16 34.66366 -118.72047 20175 ft 419 kts 347°
2026-05-04 12:17 34.69259 -118.72615 20648 ft 422 kts 346°
2026-05-04 12:17 34.72097 -118.73480 21096 ft 420 kts 336°
2026-05-04 12:17 34.74758 -118.74909 21519 ft 417 kts 326°
2026-05-04 12:17 34.77294 -118.76647 21949 ft 419 kts 325°
2026-05-04 12:18 34.79832 -118.78427 22352 ft 422 kts 325°
2026-05-04 12:18 34.82380 -118.80217 22784 ft 424 kts 325°
2026-05-04 12:18 34.84944 -118.82009 23189 ft 427 kts 325°
2026-05-04 12:18 34.87531 -118.83808 23559 ft 430 kts 325°
2026-05-04 12:19 34.90138 -118.85612 23934 ft 433 kts 325°
2026-05-04 12:19 34.92768 -118.87426 24297 ft 435 kts 325°
2026-05-04 12:19 34.95410 -118.89245 24676 ft 438 kts 325°
2026-05-04 12:19 34.98069 -118.91077 25048 ft 440 kts 325°
2026-05-04 12:20 35.00740 -118.92917 25394 ft 442 kts 325°
2026-05-04 12:20 35.03422 -118.94766 25732 ft 444 kts 325°
2026-05-04 12:20 35.06121 -118.96631 26061 ft 447 kts 325°
2026-05-04 12:20 35.08799 -118.98482 26375 ft 449 kts 324°
2026-05-04 12:21 35.11559 -119.00390 26699 ft 451 kts 324°
2026-05-04 12:21 35.14258 -119.02259 27004 ft 453 kts 324°
2026-05-04 12:21 35.17005 -119.04163 27292 ft 455 kts 324°
2026-05-04 12:21 35.19773 -119.06082 27575 ft 457 kts 324°
2026-05-04 12:22 35.22547 -119.08005 27863 ft 459 kts 324°
2026-05-04 12:22 35.25333 -119.09938 28149 ft 461 kts 324°
2026-05-04 12:22 35.28127 -119.11880 28438 ft 463 kts 324°
2026-05-04 12:22 35.30937 -119.13834 28705 ft 465 kts 324°
2026-05-04 12:23 35.33751 -119.15794 28970 ft 466 kts 324°
2026-05-04 12:23 35.36576 -119.17762 29240 ft 468 kts 324°
2026-05-04 12:23 35.39406 -119.19734 29608 ft 467 kts 324°
2026-05-04 12:23 35.42224 -119.21697 30037 ft 465 kts 324°
2026-05-04 12:24 35.45067 -119.23589 30427 ft 467 kts 329°
2026-05-04 12:24 35.48124 -119.25033 30773 ft 472 kts 335°
2026-05-04 12:24 35.51248 -119.26280 31115 ft 473 kts 336°
2026-05-04 12:24 35.54393 -119.27484 31452 ft 472 kts 336°
2026-05-04 12:25 35.57530 -119.28680 31800 ft 471 kts 336°
2026-05-04 12:25 35.60650 -119.29884 32162 ft 469 kts 336°
2026-05-04 12:25 35.63756 -119.31101 32523 ft 467 kts 336°
2026-05-04 12:25 35.66846 -119.32328 32830 ft 467 kts 335°
2026-05-04 12:26 35.69934 -119.33567 33141 ft 466 kts 335°
2026-05-04 12:26 35.73005 -119.34803 33490 ft 463 kts 335°
2026-05-04 12:26 35.76063 -119.36037 33813 ft 462 kts 335°
2026-05-04 12:26 35.79113 -119.37270 34053 ft 462 kts 335°
2026-05-04 12:27 35.85242 -119.39751 34029 ft 463 kts 335°
2026-05-04 12:27 35.91344 -119.42217 34035 ft 460 kts 335°
2026-05-04 12:28 35.97398 -119.44669 34030 ft 457 kts 335°
2026-05-04 12:28 36.03388 -119.47099 34046 ft 455 kts 335°
2026-05-04 12:29 36.09406 -119.49544 34040 ft 455 kts 335°
2026-05-04 12:29 36.15423 -119.51994 34046 ft 456 kts 336°
2026-05-04 12:30 36.21457 -119.54456 34043 ft 458 kts 336°
2026-05-04 12:30 36.27522 -119.56933 34035 ft 459 kts 336°
2026-05-04 12:31 36.33603 -119.59420 34040 ft 461 kts 336°
2026-05-04 12:31 36.39714 -119.61924 34041 ft 463 kts 336°
2026-05-04 12:32 36.48913 -119.65701 34030 ft 464 kts 336°
2026-05-04 12:33 36.55052 -119.68225 34038 ft 465 kts 336°
2026-05-04 12:33 36.61199 -119.70714 34026 ft 465 kts 338°
2026-05-04 12:34 36.67408 -119.72852 34038 ft 466 kts 340°
2026-05-04 12:34 36.73683 -119.74892 34038 ft 466 kts 340°
2026-05-04 12:35 36.79940 -119.76959 34041 ft 465 kts 339°
2026-05-04 12:35 36.86177 -119.79060 34023 ft 464 kts 339°
2026-05-04 12:36 36.92408 -119.81175 34044 ft 464 kts 339°
2026-05-04 12:36 36.98631 -119.83290 34032 ft 463 kts 339°
2026-05-04 12:37 37.04857 -119.85412 34032 ft 464 kts 339°
2026-05-04 12:37 37.11089 -119.87536 34028 ft 464 kts 339°
2026-05-04 12:38 37.17327 -119.89665 34034 ft 465 kts 340°
2026-05-04 12:38 37.23568 -119.91799 34034 ft 465 kts 340°
2026-05-04 12:39 37.29777 -119.93926 34024 ft 466 kts 340°
2026-05-04 12:39 37.36042 -119.96074 34032 ft 467 kts 340°
2026-05-04 12:40 37.42317 -119.98231 34025 ft 468 kts 340°
2026-05-04 12:40 37.48602 -120.00395 34037 ft 468 kts 340°
2026-05-04 12:41 37.54896 -120.02567 34024 ft 469 kts 340°
2026-05-04 12:41 37.61195 -120.04744 34029 ft 469 kts 340°
2026-05-04 12:42 37.67505 -120.06927 34025 ft 470 kts 340°
2026-05-04 12:42 37.73808 -120.09111 34014 ft 470 kts 340°
2026-05-04 12:43 37.80072 -120.11287 34018 ft 469 kts 340°
2026-05-04 12:43 37.86367 -120.13478 34013 ft 469 kts 340°
2026-05-04 12:44 37.92638 -120.15665 34010 ft 467 kts 340°
2026-05-04 12:44 37.98904 -120.17853 34019 ft 467 kts 340°
2026-05-04 12:45 38.05174 -120.20046 34012 ft 467 kts 340°
2026-05-04 12:45 38.11435 -120.22238 34020 ft 467 kts 340°
2026-05-04 12:46 38.17696 -120.24437 34021 ft 467 kts 340°
2026-05-04 12:46 38.23974 -120.26645 34027 ft 468 kts 340°
2026-05-04 12:47 38.30247 -120.28854 34017 ft 468 kts 341°
2026-05-04 12:47 38.36518 -120.31066 34027 ft 467 kts 341°
2026-05-04 12:48 38.42788 -120.33283 34023 ft 467 kts 341°
2026-05-04 12:48 38.49012 -120.35488 34020 ft 467 kts 341°
2026-05-04 12:49 38.55268 -120.37708 34020 ft 466 kts 341°
2026-05-04 12:49 38.61511 -120.39927 34014 ft 465 kts 341°
2026-05-04 12:50 38.67724 -120.42143 34025 ft 463 kts 342°
2026-05-04 12:50 38.73922 -120.44354 34030 ft 461 kts 342°
2026-05-04 12:51 38.80105 -120.46562 34032 ft 460 kts 342°
2026-05-04 12:51 38.86224 -120.48751 34024 ft 459 kts 342°
2026-05-04 12:52 38.92368 -120.50954 34030 ft 457 kts 343°
2026-05-04 12:52 38.98489 -120.53153 34026 ft 456 kts 343°
2026-05-04 12:53 39.04598 -120.55354 34031 ft 455 kts 343°
2026-05-04 12:53 39.09701 -120.57195 34030 ft 455 kts 343°
2026-05-04 12:54 39.15754 -120.59381 34026 ft 454 kts 343°
2026-05-04 12:54 39.21837 -120.61583 34030 ft 454 kts 343°
2026-05-04 12:55 39.27911 -120.63785 34025 ft 453 kts 343°
2026-05-04 12:55 39.33984 -120.65990 34028 ft 453 kts 344°
2026-05-04 12:56 39.40044 -120.68194 34026 ft 452 kts 344°
2026-05-04 12:56 39.46099 -120.70401 34025 ft 452 kts 344°
2026-05-04 12:57 39.52152 -120.72609 34024 ft 451 kts 344°
2026-05-04 12:57 39.58195 -120.74821 34014 ft 451 kts 344°
2026-05-04 12:58 39.64235 -120.77035 34014 ft 451 kts 344°
2026-05-04 12:58 39.70268 -120.79251 34012 ft 451 kts 344°
2026-05-04 12:59 39.76308 -120.81471 34011 ft 451 kts 345°
2026-05-04 12:59 39.82338 -120.83691 34012 ft 450 kts 345°
2026-05-04 13:00 39.88359 -120.85914 34006 ft 450 kts 345°
2026-05-04 13:00 39.94340 -120.88126 33997 ft 449 kts 345°
2026-05-04 13:01 40.00348 -120.90352 34000 ft 449 kts 345°
2026-05-04 13:01 40.06356 -120.92582 34009 ft 448 kts 345°
2026-05-04 13:02 40.12342 -120.94805 33994 ft 447 kts 345°
2026-05-04 13:02 40.18309 -120.97029 33996 ft 445 kts 345°
2026-05-04 13:03 40.24266 -120.99252 34004 ft 443 kts 346°
2026-05-04 13:03 40.30184 -121.01464 33997 ft 442 kts 346°
2026-05-04 13:04 40.36094 -121.03677 33998 ft 440 kts 346°
2026-05-04 13:04 40.41976 -121.05882 34003 ft 439 kts 346°
2026-05-04 13:05 40.47814 -121.08079 33999 ft 439 kts 346°
2026-05-04 13:05 40.53696 -121.10297 34007 ft 440 kts 346°
2026-05-04 13:06 40.59585 -121.12516 34000 ft 441 kts 346°
2026-05-04 13:06 40.65492 -121.14748 33999 ft 442 kts 346°
2026-05-04 13:07 40.71407 -121.16989 34003 ft 442 kts 346°
2026-05-04 13:07 40.77326 -121.19235 34002 ft 443 kts 346°
2026-05-04 13:08 40.83254 -121.21489 33996 ft 443 kts 345°
2026-05-04 13:08 40.89173 -121.23743 34000 ft 443 kts 346°
2026-05-04 13:09 40.95089 -121.25999 33997 ft 442 kts 346°
2026-05-04 13:09 41.01001 -121.28257 34003 ft 442 kts 346°
2026-05-04 13:10 41.06874 -121.30506 33988 ft 442 kts 346°
2026-05-04 13:10 41.12769 -121.32768 33989 ft 441 kts 346°
2026-05-04 13:11 41.18654 -121.35031 33986 ft 440 kts 345°
2026-05-04 13:11 41.24525 -121.37294 33991 ft 439 kts 346°
2026-05-04 13:12 41.30382 -121.39552 33994 ft 438 kts 346°
2026-05-04 13:12 41.36241 -121.41817 33991 ft 438 kts 346°
2026-05-04 13:13 41.42095 -121.44083 33990 ft 438 kts 346°
2026-05-04 13:13 41.47944 -121.46351 33987 ft 438 kts 346°
2026-05-04 13:14 41.53794 -121.48626 33978 ft 437 kts 346°
2026-05-04 13:14 41.59635 -121.50901 33988 ft 437 kts 346°
2026-05-04 13:15 41.65485 -121.53183 33981 ft 438 kts 346°
2026-05-04 13:15 41.71329 -121.55471 33980 ft 438 kts 346°
2026-05-04 13:16 41.77175 -121.57759 33987 ft 438 kts 346°
2026-05-04 13:16 41.82979 -121.60033 33977 ft 438 kts 346°
2026-05-04 13:17 41.88819 -121.62330 33974 ft 437 kts 346°
2026-05-04 13:17 41.94657 -121.64631 33971 ft 438 kts 346°
2026-05-04 13:18 42.00502 -121.66938 33972 ft 438 kts 346°
2026-05-04 13:18 42.06342 -121.69248 33975 ft 437 kts 346°
2026-05-04 13:19 42.12181 -121.71561 33969 ft 438 kts 346°
2026-05-04 13:19 42.17990 -121.74006 33972 ft 438 kts 342°
2026-05-04 13:20 42.23718 -121.76856 33973 ft 438 kts 341°
2026-05-04 13:20 42.29413 -121.79767 33974 ft 437 kts 341°
2026-05-04 13:21 42.35113 -121.82646 33970 ft 437 kts 342°
2026-05-04 13:21 42.40816 -121.85503 33972 ft 437 kts 342°
2026-05-04 13:22 42.46534 -121.88365 33974 ft 437 kts 342°
2026-05-04 13:22 42.52238 -121.91223 33981 ft 437 kts 342°
2026-05-04 13:23 42.57910 -121.94073 33982 ft 437 kts 342°
2026-05-04 13:23 42.63614 -121.96944 33978 ft 437 kts 342°
2026-05-04 13:24 42.69315 -121.99820 33983 ft 437 kts 341°
2026-05-04 13:24 42.75025 -122.02706 33984 ft 438 kts 342°
2026-05-04 13:25 42.83589 -122.07048 33981 ft 438 kts 342°
2026-05-04 13:25 42.89302 -122.09950 33976 ft 438 kts 342°
2026-05-04 13:26 42.95017 -122.12857 33982 ft 438 kts 342°
2026-05-04 13:26 43.00716 -122.15763 33990 ft 437 kts 342°
2026-05-04 13:27 43.06419 -122.18676 33992 ft 437 kts 342°
2026-05-04 13:27 43.12112 -122.21593 33990 ft 437 kts 342°
2026-05-04 13:28 43.17808 -122.24517 33997 ft 437 kts 342°
2026-05-04 13:28 43.23464 -122.27423 34005 ft 437 kts 342°
2026-05-04 13:29 43.29156 -122.30354 33998 ft 437 kts 342°
2026-05-04 13:29 43.34887 -122.33308 34002 ft 437 kts 342°
2026-05-04 13:30 43.40548 -122.36237 34012 ft 437 kts 342°
2026-05-04 13:30 43.46245 -122.39191 34009 ft 438 kts 342°
2026-05-04 13:31 43.51950 -122.42154 34007 ft 438 kts 342°
2026-05-04 13:31 43.57651 -122.45121 34006 ft 437 kts 342°
2026-05-04 13:32 43.63342 -122.48084 34015 ft 437 kts 342°
2026-05-04 13:32 43.69031 -122.51058 34009 ft 437 kts 341°
2026-05-04 13:33 43.74652 -122.54004 33785 ft 426 kts 342°
2026-05-04 13:33 43.77407 -122.55449 33434 ft 420 kts 342°
2026-05-04 13:33 43.80127 -122.56876 32946 ft 417 kts 342°
2026-05-04 13:34 43.82825 -122.58293 32500 ft 413 kts 342°
2026-05-04 13:34 43.85499 -122.59698 32038 ft 409 kts 342°
2026-05-04 13:34 43.88151 -122.61093 31588 ft 406 kts 341°
2026-05-04 13:34 43.90789 -122.62481 31121 ft 404 kts 341°
2026-05-04 13:35 43.93404 -122.63859 30659 ft 401 kts 341°
2026-05-04 13:35 43.98580 -122.66594 29763 ft 395 kts 341°
2026-05-04 13:35 44.01136 -122.67946 29312 ft 392 kts 341°
2026-05-04 13:36 44.03676 -122.69289 28856 ft 389 kts 341°
2026-05-04 13:36 44.06199 -122.70627 28414 ft 386 kts 341°
2026-05-04 13:36 44.08700 -122.71954 27967 ft 384 kts 341°
2026-05-04 13:36 44.11187 -122.73273 27522 ft 381 kts 341°
2026-05-04 13:37 44.13660 -122.74580 27082 ft 378 kts 343°
2026-05-04 13:37 44.16176 -122.75274 26583 ft 372 kts
2026-05-04 13:37 44.18786 -122.75073 26119 ft 370 kts
2026-05-04 13:37 44.20486 -122.74887 25796 ft 370 kts
2026-05-04 13:38 44.23869 -122.74502 25228 ft 367 kts
2026-05-04 13:38 44.26404 -122.74222 24800 ft 364 kts
2026-05-04 13:38 44.28928 -122.73955 24370 ft 362 kts
2026-05-04 13:38 44.31431 -122.73698 23948 ft 360 kts
2026-05-04 13:39 44.33924 -122.73448 23531 ft 358 kts
2026-05-04 13:39 44.36400 -122.73202 23125 ft 356 kts
2026-05-04 13:39 44.38863 -122.72959 22707 ft 353 kts
2026-05-04 13:39 44.41304 -122.72718 22297 ft 351 kts
2026-05-04 13:40 44.43729 -122.72487 21890 ft 348 kts
2026-05-04 13:40 44.46143 -122.72243 21485 ft 346 kts
2026-05-04 13:40 44.48534 -122.72004 21090 ft 343 kts
2026-05-04 13:40 44.50140 -122.71840 20817 ft 343 kts
2026-05-04 13:41 44.52479 -122.71608 20423 ft 341 kts
2026-05-04 13:41 44.54836 -122.71378 20035 ft 339 kts
2026-05-04 13:41 44.57210 -122.71144 19638 ft 337 kts
2026-05-04 13:42 44.61846 -122.70682 18808 ft 335 kts
2026-05-04 13:42 44.64162 -122.70449 18448 ft 332 kts
2026-05-04 13:42 44.66459 -122.70219 18066 ft 330 kts
2026-05-04 13:42 44.68742 -122.69989 17687 ft 328 kts
2026-05-04 13:43 44.71013 -122.69761 17304 ft 326 kts
2026-05-04 13:43 44.73274 -122.69533 16922 ft 325 kts
2026-05-04 13:43 44.75522 -122.69307 16544 ft 323 kts
2026-05-04 13:43 44.77751 -122.69083 16161 ft 321 kts
2026-05-04 13:44 44.79974 -122.68858 15785 ft 319 kts
2026-05-04 13:44 44.82185 -122.68635 15399 ft 318 kts
2026-05-04 13:44 44.84388 -122.68414 15026 ft 317 kts
2026-05-04 13:44 44.86583 -122.68194 14653 ft 315 kts
2026-05-04 13:45 44.88768 -122.67973 14281 ft 314 kts
2026-05-04 13:45 44.90941 -122.67754 13909 ft 312 kts
2026-05-04 13:45 44.93099 -122.67536 13540 ft 311 kts
2026-05-04 13:45 44.95253 -122.67318 13219 ft 308 kts
2026-05-04 13:46 44.97358 -122.67106 12989 ft 302 kts
2026-05-04 13:46 44.99455 -122.66893 12615 ft 301 kts
2026-05-04 13:46 45.01539 -122.66681 12262 ft 300 kts
2026-05-04 13:46 45.03614 -122.66471 11916 ft 298 kts
2026-05-04 13:47 45.05685 -122.66261 11560 ft 297 kts
2026-05-04 13:47 45.07744 -122.66051 11200 ft 297 kts
2026-05-04 13:47 45.09771 -122.65846 10858 ft 296 kts
2026-05-04 13:47 45.11823 -122.65638 10503 ft 295 kts
2026-05-04 13:48 45.13861 -122.65430 10194 ft 292 kts
2026-05-04 13:48 45.15853 -122.65226 10079 ft 283 kts
2026-05-04 13:48 45.17799 -122.65027 9786 ft 280 kts
2026-05-04 13:48 45.19742 -122.64829 9470 ft 279 kts
2026-05-04 13:49 45.21670 -122.64632 9146 ft 278 kts
2026-05-04 13:49 45.23600 -122.64435 8812 ft 277 kts
2026-05-04 13:49 45.25462 -122.63841 8466 ft 276 kts 27°
2026-05-04 13:49 45.27090 -122.62423 8181 ft 274 kts 33°
2026-05-04 13:50 45.28519 -122.60643 7811 ft 275 kts 50°
2026-05-04 13:50 45.29712 -122.58528 7473 ft 275 kts 51°
2026-05-04 13:50 45.30919 -122.56430 7132 ft 274 kts 50°
2026-05-04 13:50 45.32137 -122.54342 6791 ft 274 kts 50°
2026-05-04 13:51 45.33356 -122.52263 6461 ft 274 kts 50°
2026-05-04 13:51 45.34575 -122.50188 6144 ft 273 kts 50°
2026-05-04 13:51 45.35790 -122.48120 5816 ft 273 kts 50°
2026-05-04 13:51 45.36992 -122.46072 5551 ft 266 kts 50°
2026-05-04 13:52 45.39271 -122.42190 5187 ft 242 kts 49°
2026-05-04 13:52 45.40330 -122.40395 4938 ft 234 kts 49°
2026-05-04 13:52 45.41402 -122.38658 4530 ft 233 kts 40°
2026-05-04 13:53 45.42757 -122.37413 4140 ft 231 kts 29°
2026-05-04 13:53 45.44145 -122.36282 3765 ft 229 kts 29°
2026-05-04 13:53 45.45623 -122.35522 3313 ft 228 kts
2026-05-04 13:54 45.48446 -122.37166 2774 ft 214 kts 325°
2026-05-04 13:54 45.49646 -122.38360 2533 ft 208 kts 324°
2026-05-04 13:54 45.51446 -122.41401 2056 ft 194 kts 295°
2026-05-04 13:55 45.52090 -122.43035 2016 ft 186 kts 300°
2026-05-04 13:55 45.53352 -122.46210 1919 ft 187 kts 298°
2026-05-04 13:55 45.53976 -122.47824 1675 ft 178 kts 298°
2026-05-04 13:56 45.54551 -122.49314 1444 ft 170 kts 297°
2026-05-04 13:56 45.55112 -122.50767 1262 ft 164 kts 297°
2026-05-04 13:56 45.56174 -122.53525 777 ft 154 kts 297°
2026-05-04 13:57 45.56685 -122.54860 593 ft 154 kts 298°
2026-05-04 13:57 45.57200 -122.56202 406 ft 154 kts 298°
2026-05-04 13:58 45.58702 -122.60056 28 ft 113 kts 298°
2026-05-04 13:58 45.59197 -122.61300 27 ft 28 kts 315°
2026-05-04 13:58 45.59320 -122.61304 27 ft 18 kts 34°
2026-05-04 13:59 45.59330 -122.61183 27 ft 14 kts 118°
2026-05-04 13:59 45.59285 -122.61067 27 ft 13 kts 119°
2026-05-04 13:59 45.59199 -122.60846 27 ft 12 kts 119°
2026-05-04 14:00 45.59157 -122.60740 27 ft 12 kts 119°
2026-05-04 14:00 45.59059 -122.60549 27 ft 13 kts 135°
2026-05-04 14:00 45.58992 -122.60444 27 ft 15 kts 110°
2026-05-04 14:01 45.59040 -122.60326 27 ft 15 kts 41°
2026-05-04 14:01 45.59116 -122.60218 27 ft 16 kts 46°
2026-05-04 14:01 45.59136 -122.59938 27 ft 4 kts 100°
2026-05-04 14:02 45.59128 -122.59903 28 ft 4 kts 115°
2026-05-04 14:02 45.59112 -122.59865 28 ft 5 kts 137°
2026-05-04 14:02 45.59078 -122.59870 28 ft 5 kts 206°
2026-05-04 14:02 45.59046 -122.59895 28 ft 4 kts 208°
2026-05-04 14:03 45.59044 -122.59896 28 ft 1 kts 208°
2026-05-04 14:03 45.59040 -122.59899 28 ft 0 kts 208°